Location: Bothwell
(42.3833°S, 147.0000°E)
Time: 09:51:04
(UTC+10:00)

UNISAT 6 - Pass Details

Date: 05 August 2024
Orbit: 589 x 662 km, 97.7° (Epoch: 14 September)

Event Time Altitude Azimuth Distance (km) Brightness Sun altitude
Rises 05:17:03 0° 174° (S) 3,031 ? -22.5°
Reaches altitude 10° 05:19:21 10° 179° (S) 2,117 ? -22.1°
Enters shadow 05:23:05 44° 222° (SW) 932 ? -21.4°
